Stations météo

réclame
Mon MeteoGroup
Jerez De La Frontera aeropuert, Espagne (8451): Température de l'air & dewpoint: 18.10.2018 07:00:00 - 24.10.2018 07:00:00 (CEST)Jerez De La Frontera aeropuert, Espagne (8451): Vitesse du vent: 18.10.2018 07:00:00 - 24.10.2018 07:00:00 (CEST)Jerez De La Frontera aeropuert, Espagne (8451): Direction du vent: 18.10.2018 07:00:00 - 24.10.2018 07:00:00 (CEST)Jerez De La Frontera aeropuert, Espagne (8451): reduced air pressure: 18.10.2018 07:00:00 - 24.10.2018 07:00:00 (CEST)Jerez De La Frontera aeropuert, Espagne (8451): visibility: 18.10.2018 07:00:00 - 24.10.2018 07:00:00 (CEST)
Date & Time tt [°C] td [°C] ff [km/h] ff [knt] dd ppp [hPa] vv [km]
24.10.2018 07:00:00 15,0 15,0 2 1 - - 10
24.10.2018 06:00:00 15,6 15,1 0 0 N 1024,0 10
24.10.2018 05:00:00 15,7 15,1 2 1 - 1024,0 10
24.10.2018 04:00:00 16,4 15,1 5 3 NNE 1024,1 10
24.10.2018 03:00:00 16,9 16,1 2 1 - 1024,6 10
24.10.2018 02:00:00 17,2 15,9 2 1 W 1024,6 10
24.10.2018 01:00:00 17,4 16,0 2 1 - 1024,6 10
24.10.2018 00:00:00 18,8 17,3 0 0 N 1024,5 10
23.10.2018 23:00:00 19,4 17,4 4 2 - 1024,3 10
23.10.2018 22:00:00 19,7 17,9 4 2 - 1024,0 10
23.10.2018 21:00:00 20,0 17,7 4 2 - 1023,8 10
23.10.2018 20:00:00 21,0 17,4 5 3 NE 1023,3 10
23.10.2018 19:00:00 22,8 17,0 8 4 ENE 1023,3 10
23.10.2018 18:00:00 23,5 17,7 9 5 ENE 1023,3 10
23.10.2018 17:00:00 23,5 17,6 9 5 E 1023,1 10
23.10.2018 16:00:00 23,3 17,3 11 6 E 1022,8 10
23.10.2018 15:00:00 24,9 17,5 5 3 E 1022,8 10
23.10.2018 14:00:00 23,7 18,0 5 3 - 1023,3 10
23.10.2018 13:00:00 22,6 18,3 2 1 - 1023,6 10
23.10.2018 12:00:00 21,0 18,4 4 2 - 1023,5 10
23.10.2018 11:00:00 19,6 18,4 4 2 - 1024,0 10
23.10.2018 10:00:00 18,4 17,6 5 3 NW 1022,9 8
23.10.2018 09:00:00 17,9 16,8 5 3 NNW 1021,7 10
23.10.2018 08:00:00 17,6 16,5 5 3 NE 1020,8 10
23.10.2018 07:00:00 17,0 16,4 5 3 NNE 1020,7 10
23.10.2018 06:00:00 16,8 15,9 8 4 ENE 1020,6 10
23.10.2018 05:00:00 17,0 16,2 2 1 - 1020,5 10
23.10.2018 04:00:00 16,8 16,3 5 3 NE 1021,0 10
23.10.2018 03:00:00 17,2 16,6 4 2 E 1020,7 10
23.10.2018 02:00:00 17,7 16,8 4 2 NE 1021,0 10
23.10.2018 01:00:00 18,2 16,9 2 1 E 1021,0 10
23.10.2018 00:00:00 18,8 17,1 4 2 - 1021,1 10
22.10.2018 23:00:00 19,1 17,1 0 0 N 1020,7 10
22.10.2018 22:00:00 19,9 17,5 8 4 S 1020,2 10
22.10.2018 21:00:00 21,0 18,6 9 5 SSW 1020,1 10
22.10.2018 20:00:00 22,0 18,3 4 2 - 1019,3 10
22.10.2018 19:00:00 23,5 17,7 5 3 S 1018,7 10
22.10.2018 18:00:00 25,4 16,4 5 3 NW 1018,5 10
22.10.2018 17:00:00 26,5 17,0 8 4 N 1018,4 10
22.10.2018 16:00:00 25,0 16,0 8 4 NNW - 10
22.10.2018 15:00:00 26,3 18,0 5 3 - 1018,7 10
22.10.2018 14:00:00 26,0 18,2 8 4 W 1019,9 10
22.10.2018 13:00:00 24,6 17,8 4 2 - 1020,3 10
22.10.2018 12:00:00 23,0 17,7 5 3 NNW 1020,2 8
22.10.2018 11:00:00 19,0 16,9 4 2 - 1020,2 7
22.10.2018 10:00:00 16,1 16,1 0 0 N 1020,1 6
22.10.2018 09:00:00 13,4 13,4 0 0 N 1019,3 3,0
22.10.2018 08:00:00 13,7 13,5 0 0 N 1019,0 10
22.10.2018 07:00:00 14,3 14,1 0 0 N 1019,1 10
22.10.2018 06:00:00 14,8 14,6 5 3 NNW 1018,8 10
22.10.2018 05:00:00 14,9 14,7 5 3 N 1018,6 10
22.10.2018 04:00:00 15,2 14,9 2 1 ENE 1019,1 10
22.10.2018 03:00:00 15,8 15,5 2 1 - 1019,2 10
22.10.2018 02:00:00 15,5 15,2 5 3 N 1019,1 10
22.10.2018 01:00:00 15,8 15,6 4 2 N 1019,2 10
22.10.2018 00:00:00 16,6 16,3 0 0 N 1019,3 10
21.10.2018 23:00:00 16,8 16,3 2 1 NE 1018,5 10
21.10.2018 22:00:00 17,8 16,6 5 3 NNW 1018,2 10
21.10.2018 21:00:00 19,1 16,5 0 0 N 1017,8 10
21.10.2018 20:00:00 21,3 17,3 9 5 SSW 1017,4 10
21.10.2018 19:00:00 23,9 17,6 9 5 SSE 1016,9 10
21.10.2018 18:00:00 24,6 16,1 5 3 SE 1016,8 10
21.10.2018 17:00:00 25,1 16,1 8 4 SE 1017,1 10
21.10.2018 16:00:00 25,1 15,4 5 3 - 1017,1 10
21.10.2018 15:00:00 23,5 17,1 9 5 E 1017,5 10
21.10.2018 14:00:00 23,0 18,2 9 5 ENE 1017,9 10
21.10.2018 13:00:00 21,7 18,0 15 8 ENE 1018,5 10
21.10.2018 12:00:00 21,5 17,6 5 3 ENE 1018,2 10
21.10.2018 11:00:00 18,1 17,1 4 2 - 1018,0 10
21.10.2018 10:00:00 16,0 15,8 2 1 - 1017,3 10
21.10.2018 09:00:00 15,5 15,3 0 0 N 1016,5 10
21.10.2018 08:00:00 15,1 14,6 4 2 NE 1016,2 10
21.10.2018 07:00:00 16,0 15,5 0 0 N 1016,3 10
21.10.2018 06:00:00 15,6 15,0 4 2 E 1015,8 10
21.10.2018 05:00:00 15,6 15,1 5 3 E 1015,6 10
21.10.2018 04:00:00 15,7 14,9 5 3 ENE 1015,7 10
21.10.2018 03:00:00 15,7 14,9 8 4 ENE 1015,9 10
21.10.2018 02:00:00 15,1 14,5 5 3 ENE 1015,9 10
21.10.2018 01:00:00 15,0 14,2 4 2 - 1016,1 10
21.10.2018 00:00:00 15,5 14,4 8 4 ENE 1016,2 10
20.10.2018 23:00:00 16,2 14,9 2 1 - 1015,9 10
20.10.2018 22:00:00 16,1 15,1 11 6 ENE 1015,5 10
20.10.2018 21:00:00 16,1 15,2 8 4 NNE 1015,1 10
20.10.2018 20:00:00 16,1 14,6 15 8 NE 1014,8 10
20.10.2018 19:00:00 16,0 14,0 13 7 NE 1014,6 10
20.10.2018 18:00:00 16,3 14,7 24 13 N 1014,2 10
20.10.2018 17:00:00 16,7 15,3 24 13 NNE 1014,1 10
20.10.2018 16:00:00 14,7 14,6 21 11 N 1014,6 10
20.10.2018 15:00:00 14,8 14,6 11 6 N 1014,6 3,5
20.10.2018 14:00:00 16,6 16,0 5 3 NNE 1014,5 10
20.10.2018 13:00:00 17,2 15,0 11 6 ENE 1015,0 4,5
20.10.2018 12:00:00 18,2 15,1 11 6 NE 1014,7 10
20.10.2018 11:00:00 17,1 15,1 8 4 NNE 1014,5 10
20.10.2018 10:00:00 15,6 14,5 16 9 N 1014,0 10
20.10.2018 09:00:00 14,0 13,7 15 8 N 1013,8 10
20.10.2018 08:00:00 14,1 13,6 9 5 NNW 1013,6 8
20.10.2018 07:00:00 14,4 13,4 4 2 - 1013,8 6
20.10.2018 06:00:00 14,6 13,0 8 4 NW 1012,6 10
20.10.2018 05:00:00 14,6 13,4 0 0 N 1012,9 10
20.10.2018 04:00:00 14,2 13,1 4 2 - 1013,1 10
20.10.2018 03:00:00 13,8 12,7 8 4 NE 1013,4 10
20.10.2018 02:00:00 13,6 12,7 9 5 NNE 1013,4 10
20.10.2018 01:00:00 14,2 13,1 2 1 - 1013,5 10
20.10.2018 00:00:00 14,5 12,7 4 2 - 1013,7 10
19.10.2018 23:00:00 15,9 12,3 9 5 ESE 1013,5 10
19.10.2018 22:00:00 15,1 13,4 5 3 ESE 1013,2 10
19.10.2018 21:00:00 15,4 13,8 2 1 - 1012,9 10
19.10.2018 20:00:00 15,9 14,1 8 4 SE 1012,1 10
19.10.2018 19:00:00 15,7 14,1 18 10 SE 1011,5 10
19.10.2018 18:00:00 18,1 13,4 13 7 S 1011,0 10
19.10.2018 17:00:00 21,0 10,9 8 4 N 1010,8 10
19.10.2018 16:00:00 19,8 11,6 11 6 NNE 1010,9 10
19.10.2018 15:00:00 21,6 11,9 15 8 NNE 1011,0 10
19.10.2018 14:00:00 21,6 13,2 8 4 - 1011,0 10
19.10.2018 13:00:00 21,3 10,7 8 4 - 1010,7 10
19.10.2018 12:00:00 19,8 12,9 4 2 NE 1011,0 10
19.10.2018 11:00:00 16,0 13,1 4 2 NW 1010,9 10
19.10.2018 10:00:00 13,4 11,8 4 2 - 1011,2 10
19.10.2018 09:00:00 9,9 9,4 0 0 N 1010,5 10
19.10.2018 08:00:00 10,6 10,1 2 1 N 1009,9 10
19.10.2018 07:00:00 11,0 10,3 5 3 NNE 1010,2 10
19.10.2018 06:00:00 11,7 10,8 4 2 SE 1009,9 10
19.10.2018 05:00:00 12,0 11,3 8 4 N 1009,6 10
19.10.2018 04:00:00 11,8 11,0 8 4 N 1010,2 10
19.10.2018 03:00:00 11,7 11,2 4 2 - 1010,2 10
19.10.2018 02:00:00 11,4 10,6 8 4 N 1010,4 10
19.10.2018 01:00:00 12,3 11,2 0 0 N 1010,5 10
19.10.2018 00:00:00 13,1 11,7 8 4 ENE 1010,6 10
18.10.2018 23:00:00 14,2 11,9 8 4 ESE 1010,2 10
18.10.2018 22:00:00 13,9 11,9 8 4 ESE 1009,9 10
18.10.2018 21:00:00 14,7 12,2 5 3 SSE 1009,7 10
18.10.2018 20:00:00 16,3 11,9 8 4 SSE 1008,5 10
18.10.2018 19:00:00 18,1 11,9 11 6 SSE 1007,8 10
18.10.2018 18:00:00 18,5 11,8 13 7 S 1007,4 10
18.10.2018 17:00:00 18,3 13,3 9 5 S 1007,2 10
18.10.2018 16:00:00 18,8 12,4 4 2 - 1006,8 10
18.10.2018 15:00:00 19,0 12,3 5 3 - 1007,0 10
18.10.2018 14:00:00 17,1 13,2 11 6 NE 1007,5 10
18.10.2018 13:00:00 15,6 14,3 9 5 ENE 1008,3 10
18.10.2018 12:00:00 14,2 13,6 2 1 - 1008,4 10
18.10.2018 11:00:00 13,8 12,9 0 0 N 1008,1 10
18.10.2018 10:00:00 13,4 12,6 5 3 ESE 1008,0 10
18.10.2018 09:00:00 13,1 12,3 8 4 NE 1007,6 10
18.10.2018 08:00:00 13,4 12,8 22 12 NE 1007,7 8
18.10.2018 07:00:00 14,6 13,2 21 11 W 1008,6 3,0

tt = Température de l'air
td = dewpoint
ff = Vitesse du vent
dd = Direction du vent
ppp = reduced air pressure
vv = visibility

stations d'obs. à proximité